FW4092 Weather Reports


time (UTC)temp
C
wind
direction
speed
KPH
gust
KPH
rain 1hr
cm
rain 24hr
cm
rain mn
cm
humidity
%
barometer
mb
20260510224517 25 296 12.9 29.0 0.00 0.00 0.00 37 1012.9
20260510224014 25 330 14.5 29.0 0.00 0.00 0.00 37 1012.9
20260510223515 25 321 14.5 30.6 0.00 0.00 0.00 36 1012.8
20260510223005 24 348 16.1 30.6 0.00 0.00 0.00 36 1012.9
20260510222959 24 291 14.5 27.4 0.00 0.00 0.00 36 1012.9
20260510222002 25 308 12.9 25.7 0.00 0.00 0.00 36 1012.9
20260510221502 25 325 12.9 27.4 0.00 0.00 0.00 36 1012.9
20260510221001 25 239 11.3 27.4 0.00 0.00 0.00 36 1012.9
20260510220502 25 315 8.0 20.9 0.00 0.00 0.00 36 1012.9
20260510220000 25 31 8.0 17.7 0.00 0.00 0.00 35 1012.8
20260510215500 25 5 8.0 20.9 0.00 0.00 0.00 35 1013.0
20260510215010 25 14 6.4 20.9 0.00 0.00 0.00 36 1012.8
20260510214756 25 5 9.7 19.3 0.00 0.00 0.00 35 1012.9
20260510214229 25 300 8.0 19.3 0.00 0.00 0.00 35 1013.0
20260510213457 25 313 4.8 16.1 0.00 0.00 0.00 35 1012.9
20260510212954 25 333 3.2 12.9 0.00 0.00 0.00 35 1012.8
20260510212454 25 229 4.8 12.9 0.00 0.00 0.00 35 1012.8
20260510212243 25 25 4.8 14.5 0.00 0.00 0.00 35 1012.9
20260510211454 24 319 6.4 16.1 0.00 0.00 0.00 37 1012.9
20260510210951 24 59 4.8 16.1 0.00 0.00 0.00 36 1012.8
20260510210442 24 35 6.4 17.7 0.00 0.00 0.00 37 1013.0
20260510210414 24 339 6.4 17.7 0.00 0.00 0.00 36 1013.0
20260510205433 24 273 4.8 17.7 0.00 0.00 0.00 36 1013.1
20260510204926 23 11 6.4 17.7 0.00 0.00 0.00 36 1013.2
20260510204705 23 338 6.4 16.1 0.00 0.00 0.00 36 1013.2
20260510203913 23 339 6.4 19.3 0.00 0.00 0.00 37 1013.2
20260510203410 23 350 8.0 19.3 0.00 0.00 0.00 37 1013.2
20260510202903 23 5 6.4 14.5 0.00 0.00 0.00 38 1013.2
20260510202355 23 240 4.8 14.5 0.00 0.00 0.00 37 1013.2
20260510201848 22 5 4.8 12.9 0.00 0.00 0.00 39 1013.2
20260510201343 22 86 6.4 16.1 0.00 0.00 0.00 38 1013.2
20260510200840 22 47 3.2 16.1 0.00 0.00 0.00 37 1013.3
20260510200330 22 121 4.8 11.3 0.00 0.00 0.00 38 1013.3
20260510200109 22 5 4.8 12.9 0.00 0.00 0.00 39 1013.3
20260510195603 22 297 4.8 14.5 0.00 0.00 0.00 37 1013.2
20260510195044 22 316 4.8 14.5 0.00 0.00 0.00 37 1013.2
20260510194310 22 329 3.2 14.5 0.00 0.00 0.00 38 1013.3
20260510194032 22 66 3.2 16.1 0.00 0.00 0.00 37 1013.3
20260510193254 22 32 4.8 16.1 0.00 0.00 0.00 39 1013.3
20260510192748 22 351 3.2 12.9 0.00 0.00 0.00 38 1013.3
20260510192528 21 16 3.2 12.9 0.00 0.00 0.00 38 1013.4
20260510192523 22 321 1.6 12.9 0.00 0.00 0.00 38 1013.3
20260510191232 21 40 3.2 12.9 0.00 0.00 0.00 38 1013.4
20260510191017 21 355 3.2 8.0 0.00 0.00 0.00 38 1013.2
20260510190220 21 22 3.2 12.9 0.00 0.00 0.00 38 1013.3
20260510185712 21 284 4.8 12.9 0.00 0.00 0.00 38 1013.3
20260510185246 21 33 3.2 12.9 0.00 0.00 0.00 38 1013.4
20260510185226 21 333 3.2 9.7 0.00 0.00 0.00 38 1013.3
20260510184154 21 63 4.8 14.5 0.00 0.00 0.00 39 1013.4
20260510183648 20 72 3.2 14.5 0.00 0.00 0.00 41 1013.5
20260510183144 20 80 1.6 12.9 0.00 0.00 0.00 42 1013.5
20260510182910 19 355 3.2 8.0 0.00 0.00 0.00 42 1013.6
20260510182418 19 348 4.8 8.0 0.00 0.00 0.00 42 1013.8
20260510181630 19 335 3.2 8.0 0.00 0.00 0.00 42 1013.6
20260510181133 18 344 3.2 8.0 0.00 0.00 0.00 42 1013.8
20260510180631 18 350 3.2 11.3 0.00 0.00 0.00 43 1013.6
20260510180130 18 9 3.2 11.3 0.00 0.00 0.00 45 1013.6
20260510175630 17 319 4.8 9.7 0.00 0.00 0.00 44 1013.8
20260510175412 17 31 3.2 9.7 0.00 0.00 0.00 44 1013.9
20260510174630 17 355 3.2 9.7 0.00 0.00 0.00 45 1013.9
20260510174131 17 355 3.2 8.0 0.00 0.00 0.00 44 1014.0
20260510173631 17 340 3.2 9.7 0.00 0.00 0.00 45 1013.9
20260510173131 16 343 3.2 9.7 0.00 0.00 0.00 44 1014.0
20260510172627 16 321 3.2 8.0 0.00 0.00 0.00 44 1014.1
20260510172127 16 336 3.2 8.0 0.00 0.00 0.00 44 1013.9
20260510171626 16 310 4.8 8.0 0.00 0.00 0.00 43 1013.9
20260510171126 16 304 3.2 8.0 0.00 0.00 0.00 44 1014.0
20260510170626 16 346 3.2 8.0 0.00 0.00 0.00 43 1013.9
20260510170135 16 15 1.6 4.8 0.00 0.00 0.00 43 1013.6
20260510165635 16 115 0.0 3.2 0.00 0.00 0.00 43 1013.6
20260510165134 16 119 1.6 3.2 0.00 0.00 0.00 43 1013.6
20260510164639 16 119 1.6 4.8 0.00 0.00 0.00 43 1013.5
20260510164358 16 117 1.6 4.8 0.00 0.00 0.00 43 1013.5
20260510163622 16 12 0.0 4.8 0.00 0.00 0.00 45 1013.5
20260510163118 15 0 1.6 3.2 0.00 0.00 0.00 44 1013.6
20260510162615 15 295 0.0 4.8 0.00 0.00 0.00 45 1013.9
20260510162118 15 142 0.0 4.8 0.00 0.00 0.00 47 1013.9
20260510161600 15 142 0.0 4.8 0.00 0.00 0.00 47 1014.0
20260510161052 14 145 0.0 4.8 0.00 0.00 0.00 45 1014.0
20260510160547 14 145 0.0 4.8 0.00 0.00 0.00 45 1013.9
20260510160040 13 145 0.0 3.2 0.00 0.00 0.00 47 1013.8
20260510155534 13 146 0.0 3.2 0.00 0.00 0.00 48 1013.9
20260510155028 13 146 0.0 3.2 0.00 0.00 0.00 49 1013.9
20260510154521 12 146 0.0 3.2 0.00 0.00 0.00 50 1013.9
20260510154017 12 146 0.0 1.6 0.00 0.00 0.00 51 1014.0
20260510153515 12 146 0.0 1.6 0.00 0.00 0.00 51 1014.0
20260510153009 11 146 0.0 3.2 0.00 0.00 0.00 52 1013.8
20260510152725 11 146 0.0 3.2 0.00 0.00 0.00 53 1013.9
20260510152507 11 146 0.0 3.2 0.00 0.00 0.00 53 1013.9
20260510152018 11 146 0.0 1.6 0.00 0.00 0.00 54 1014.0
20260510152014 11 146 0.0 1.6 0.00 0.00 0.00 53 1013.9
20260510150941 11 146 0.0 3.2 0.00 0.00 0.00 54 1013.9
20260510150435 10 146 1.6 4.8 0.00 0.00 0.00 54 1013.9
20260510145928 10 146 0.0 4.8 0.00 0.00 0.00 53 1014.0
20260510145424 10 145 1.6 3.2 0.00 0.00 0.00 53 1013.9
20260510144919 10 146 1.6 6.4 0.00 0.00 0.00 54 1013.9
20260510144644 10 146 1.6 6.4 0.00 0.00 0.00 54 1013.9
20260510143913 10 148 1.6 4.8 0.00 0.00 0.00 55 1013.8
20260510143631 10 146 0.0 3.2 0.00 0.00 0.00 56 1013.9
20260510142853 9 146 0.0 0.0 0.00 0.00 0.00 58 1013.9
20260510142346 9 146 0.0 0.0 0.00 0.00 0.00 58 1014.0
20260510142102 9 146 0.0 1.6 0.00 0.00 0.00 57 1014.0
20260510141852 9 146 0.0 1.6 0.00 0.00 0.00 57 1014.0
20260510141334 9 146 0.0 3.2 0.00 0.00 0.00 57 1014.0
20260510140830 9 146 0.0 3.2 0.00 0.00 0.00 56 1013.9
20260510140547 9 146 0.0 3.2 0.00 0.00 0.00 56 1013.8
20260510135824 9 146 0.0 3.2 0.00 0.00 0.00 55 1013.8
20260510135320 9 146 0.0 0.0 0.00 0.00 0.00 58 1013.6
20260510135046 9 146 0.0 3.2 0.00 0.00 0.00 57 1013.8
20260510134820 9 146 0.0 3.2 0.00 0.00 0.00 57 1013.8
20260510134315 8 146 0.0 3.2 0.00 0.00 0.00 58 1013.8
20260510133815 8 146 0.0 3.2 0.00 0.00 0.00 59 1013.6
20260510133556 7 146 0.0 3.2 0.00 0.00 0.00 59 1013.5
20260510133056 7 146 0.0 3.2 0.00 0.00 0.00 58 1013.6
20260510132313 7 146 0.0 3.2 0.00 0.00 0.00 59 1013.4
20260510132056 7 146 0.0 3.2 0.00 0.00 0.00 59 1013.5
20260510131601 7 146 0.0 3.2 0.00 0.00 0.00 60 1013.5
20260510130821 7 143 0.0 3.2 0.00 0.00 0.00 61 1013.4
20260510130310 6 143 0.0 3.2 0.00 0.00 0.00 62 1013.4
20260510125812 6 143 0.0 1.6 0.00 0.00 0.00 61 1013.4
20260510125309 7 143 1.6 4.8 0.00 0.00 0.00 61 1013.4
20260510124809 6 143 1.6 6.4 0.00 0.00 0.00 62 1013.5
20260510124312 6 152 1.6 6.4 0.00 0.00 0.00 63 1013.5
20260510123808 6 147 1.6 4.8 0.00 0.00 0.00 64 1013.4
20260510123522 6 148 0.0 1.6 0.00 0.00 0.00 63 1013.4
20260510123302 6 148 0.0 1.6 0.00 0.00 0.00 63 1013.4
20260510122756 6 148 0.0 0.0 0.00 0.00 0.00 60 1013.3
20260510122257 6 148 0.0 0.0 0.00 0.00 0.00 60 1013.2
20260510121754 7 148 0.0 0.0 0.00 0.00 0.00 59 1013.1
20260510121251 7 148 0.0 0.0 0.00 0.00 0.00 59 1013.2
20260510120749 8 148 0.0 1.6 0.00 0.00 0.00 57 1013.2
20260510120252 8 148 0.0 1.6 0.00 0.00 0.00 57 1013.2
20260510115749 8 148 0.0 0.0 0.00 0.00 0.00 57 1013.2
20260510115249 8 148 0.0 0.0 0.00 0.00 0.00 56 1013.3
20260510115030 8 148 0.0 0.0 0.00 0.00 0.00 57 1013.3
20260510114249 8 148 0.0 0.0 0.00 0.00 0.00 58 1013.3
20260510113748 8 148 0.0 0.0 0.00 0.00 0.00 57 1013.3
20260510113249 8 148 0.0 0.0 0.00 0.00 0.00 55 1013.2
20260510112748 9 148 0.0 0.0 0.00 0.00 0.00 53 1013.3
20260510112251 9 148 0.0 0.0 0.00 0.00 0.00 53 1013.3
20260510111749 10 148 0.0 0.0 0.00 0.00 0.00 52 1013.3
20260510111249 10 148 0.0 0.0 0.00 0.00 0.00 52 1013.3
20260510110749 10 148 0.0 3.2 0.00 0.00 0.00 52 1013.3
20260510110250 10 148 0.0 3.2 0.00 0.00 0.00 52 1013.3
20260510105757 10 148 0.0 3.2 0.00 0.00 0.00 52 1013.4
20260510105300 10 148 0.0 3.2 0.00 0.00 0.00 52 1013.3
20260510104755 10 149 0.0 3.2 0.00 0.00 0.00 53 1013.4
20260510104537 9 149 0.0 3.2 0.00 0.00 0.00 53 1013.3
20260510103745 9 149 0.0 3.2 0.00 0.00 0.00 53 1013.2
20260510103241 9 150 1.6 4.8 0.00 0.00 0.00 54 1013.2
20260510102730 9 148 1.6 4.8 0.00 0.00 0.00 54 1013.1
20260510102500 9 287 0.0 3.2 0.00 0.00 0.00 54 1013.3
20260510101726 9 298 0.0 0.0 0.00 0.00 0.00 54 1013.4
20260510101452 9 298 0.0 0.0 0.00 0.00 0.00 53 1013.3
20260510100720 9 298 0.0 0.0 0.00 0.00 0.00 53 1013.3
20260510100426 10 299 0.0 0.0 0.00 0.00 0.00 52 1013.3
20260510100214 10 299 0.0 0.0 0.00 0.00 0.00 52 1013.3
20260510095926 10 299 0.0 0.0 0.00 0.00 0.00 51 1013.4
20260510095149 10 298 0.0 0.0 0.00 0.00 0.00 51 1013.4
20260510094926 11 298 0.0 0.0 0.00 0.00 0.00 50 1013.4
20260510094137 11 298 0.0 0.0 0.00 0.00 0.00 50 1013.5
20260510093630 11 298 0.0 0.0 0.00 0.00 0.00 50 1013.5
20260510093128 11 298 0.0 1.6 0.00 0.00 0.00 50 1013.5
20260510092622 11 298 0.0 1.6 0.00 0.00 0.00 50 1013.4
20260510092350 11 298 0.0 0.0 0.00 0.00 0.00 50 1013.4
20260510091610 11 298 0.0 0.0 0.00 0.00 0.00 50 1013.5
20260510091111 11 298 0.0 0.0 0.00 0.00 0.00 49 1013.5
20260510090556 11 298 0.0 0.0 0.00 0.00 0.00 48 1013.5
20260510090049 11 298 0.0 0.0 0.00 0.00 0.00 48 1013.5
20260510085547 12 298 0.0 0.0 0.00 0.00 0.00 48 1013.6
20260510085043 12 298 0.0 0.0 0.00 0.00 0.00 47 1013.6
20260510085039 12 298 0.0 0.0 0.00 0.00 0.00 48 1013.6
20260510084028 12 298 0.0 0.0 0.00 0.00 0.00 46 1013.5
20260510083520 12 298 0.0 0.0 0.00 0.00 0.00 46 1013.5
20260510083017 13 298 0.0 0.0 0.00 0.00 0.00 45 1013.5
20260510082514 13 298 0.0 0.0 0.00 0.00 0.00 45 1013.5
20260510082008 13 298 0.0 0.0 0.00 0.00 0.00 45 1013.6
20260510081502 13 298 0.0 0.0 0.00 0.00 0.00 45 1013.6
20260510080949 13 298 0.0 0.0 0.00 0.00 0.00 44 1013.6
20260510080443 13 298 0.0 0.0 0.00 0.00 0.00 44 1013.6
20260510075940 13 298 0.0 0.0 0.00 0.00 0.00 43 1013.6
20260510075434 13 298 0.0 0.0 0.00 0.00 0.00 43 1013.8
20260510074929 13 298 0.0 0.0 0.00 0.00 0.00 42 1013.6
20260510074418 13 298 0.0 0.0 0.00 0.00 0.00 42 1013.8
20260510074201 13 298 0.0 0.0 0.00 0.00 0.00 42 1013.6
20260510073410 14 298 0.0 0.0 0.00 0.00 0.00 41 1013.6
20260510073136 14 298 0.0 0.0 0.00 0.00 0.00 41 1013.6
20260510072358 14 298 0.0 0.0 0.00 0.00 0.00 41 1013.6
20260510071851 14 298 0.0 1.6 0.00 0.00 0.00 40 1013.8
20260510071620 15 298 0.0 1.6 0.00 0.00 0.00 40 1013.8
20260510070842 15 298 0.0 1.6 0.00 0.00 0.00 40 1013.8
20260510070607 15 298 0.0 1.6 0.00 0.00 0.00 40 1013.8
20260510065829 15 298 0.0 3.2 0.00 0.00 0.00 39 1013.8
20260510065325 15 298 0.0 4.8 0.00 0.00 0.00 39 1013.8
20260510064815 15 298 1.6 4.8 0.00 0.00 0.00 39 1013.6
20260510064314 15 298 1.6 4.8 0.00 0.00 0.00 39 1013.6
20260510064049 15 298 3.2 6.4 0.00 0.00 0.00 39 1013.8
20260510063532 16 299 3.2 6.4 0.00 0.00 0.00 39 1013.6
20260510062811 16 293 3.2 6.4 0.00 0.00 0.00 39 1013.6
20260510062306 16 286 3.2 6.4 0.00 0.00 0.00 39 1013.6
20260510062027 16 300 3.2 6.4 0.00 0.00 0.00 39 1013.6
20260510061523 16 308 3.2 6.4 0.00 0.00 0.00 39 1013.6
20260510061310 16 308 3.2 6.4 0.00 0.00 0.00 39 1013.6
20260510060801 16 306 3.2 6.4 0.00 0.00 0.00 38 1013.8
20260510060528 16 302 3.2 6.4 0.00 0.00 0.00 38 1013.8
20260510060308 16 302 3.2 6.4 0.00 0.00 0.00 38 1013.8
20260510060306 16 300 3.2 8.0 0.00 0.00 0.00 38 1013.8
20260510055807 16 300 3.2 8.0 0.00 0.00 0.00 38 1013.8
20260510055306 16 310 3.2 8.0 0.00 0.00 0.00 37 1013.8
20260510054815 16 325 3.2 8.0 0.00 0.00 0.00 37 1013.8
20260510054312 17 307 3.2 6.4 0.00 0.00 0.00 37 1013.8
20260510054044 17 306 3.2 6.4 0.00 0.00 0.00 36 1013.8
20260510053302 17 306 3.2 9.7 0.00 0.00 0.00 36 1013.8
20260510052811 17 296 4.8 9.7 0.00 0.00 0.00 35 1013.8
20260510052524 17 305 4.8 11.3 0.00 0.00 0.00 35 1013.9
20260510052307 17 305 4.8 11.3 0.00 0.00 0.00 35 1013.9
20260510051800 18 290 4.8 11.3 0.00 0.00 0.00 34 1013.8
20260510051308 18 327 3.2 6.4 0.00 0.00 0.00 35 1013.8
20260510051301 18 324 3.2 6.4 0.00 0.00 0.00 34 1013.8
20260510050253 18 347 3.2 8.0 0.00 0.00 0.00 35 1013.6
20260510045747 18 355 3.2 8.0 0.00 0.00 0.00 35 1013.8
20260510045523 19 346 3.2 8.0 0.00 0.00 0.00 34 1013.6
20260510044736 19 336 3.2 8.0 0.00 0.00 0.00 34 1013.6
20260510044230 19 355 3.2 9.7 0.00 0.00 0.00 34 1013.6
20260510044015 20 350 4.8 12.9 0.00 0.00 0.00 33 1013.5
20260510043217 20 355 4.8 12.9 0.00 0.00 0.00 32 1013.4
20260510042743 20 5 4.8 12.9 0.00 0.00 0.00 31 1013.3
20260510042727 20 348 4.8 12.9 0.00 0.00 0.00 32 1013.4
20260510041701 20 355 4.8 12.9 0.00 0.00 0.00 31 1013.3
20260510041153 20 346 4.8 12.9 0.00 0.00 0.00 30 1013.2
20260510040928 20 11 4.8 16.1 0.00 0.00 0.00 29 1013.2
20260510040142 20 350 4.8 16.1 0.00 0.00 0.00 27 1013.1
20260510035917 21 346 4.8 20.9 0.00 0.00 0.00 26 1013.1
20260510035129 21 355 4.8 20.9 0.00 0.00 0.00 25 1013.0
20260510034623 21 355 4.8 12.9 0.00 0.00 0.00 24 1012.9
20260510034117 21 355 4.8 12.9 0.00 0.00 0.00 23 1012.8
20260510033612 21 355 4.8 12.9 0.00 0.00 0.00 23 1012.8
20260510033108 21 323 3.2 12.9 0.00 0.00 0.00 22 1012.8
20260510032559 22 355 3.2 12.9 0.00 0.00 0.00 22 1012.7
20260510032336 22 5 3.2 8.0 0.00 0.00 0.00 22 1012.7
20260510031549 22 355 3.2 8.0 0.00 0.00 0.00 22 1012.7
20260510031336 22 20 1.6 8.0 0.00 0.00 0.00 22 1012.6
20260510030535 23 13 1.6 8.0 0.00 0.00 0.00 22 1012.4
20260510030032 23 31 1.6 14.5 0.00 0.00 0.00 22 1012.4
20260510025822 23 33 3.2 14.5 0.00 0.00 0.00 22 1012.4
20260510025018 24 44 1.6 9.7 0.00 0.00 0.00 21 1012.4
20260510024511 24 33 1.6 9.7 0.00 0.00 0.00 21 1012.4
20260510024008 25 5 3.2 8.0 0.00 0.00 0.00 21 1012.4
20260510023500 25 47 3.2 11.3 0.00 0.00 0.00 20 1012.3
20260510022954 25 30 3.2 11.3 0.00 0.00 0.00 20 1012.4
20260510022447 26 30 3.2 8.0 0.00 0.00 0.00 20 1012.4
20260510021941 26 34 3.2 11.3 0.00 0.00 0.00 20 1012.6
20260510021435 26 13 3.2 12.9 0.00 0.00 0.00 20 1012.4
20260510020929 26 49 4.8 12.9 0.00 0.00 0.00 20 1012.6
20260510020423 26 337 3.2 9.7 0.00 0.00 0.00 19 1012.4
20260510015917 26 43 3.2 9.7 0.00 0.00 0.00 19 1012.4
20260510015412 26 9 4.8 11.3 0.00 0.00 0.00 18 1012.6
20260510014912 26 26 4.8 14.5 0.00 0.00 0.00 19 1012.6
20260510014359 26 23 6.4 19.3 0.00 0.00 0.00 19 1012.6
20260510013854 26 342 6.4 19.3 0.00 0.00 0.00 18 1012.7
20260510013347 26 29 4.8 14.5 0.00 0.00 0.00 18 1012.8
20260510012841 26 355 4.8 16.1 0.00 0.00 0.00 19 1012.9
20260510012412 27 355 6.4 16.1 0.00 0.00 0.00 18 1012.9
20260510012354 26 355 4.8 16.1 0.00 0.00 0.00 19 1013.0
20260510011327 27 9 8.0 16.1 0.00 0.00 0.00 18 1012.9
20260510011102 27 355 6.4 16.1 0.00 0.00 0.00 18 1012.9
20260510010311 27 331 6.4 16.1 0.00 0.00 0.00 18 1012.8
20260510005811 27 349 6.4 16.1 0.00 0.00 0.00 18 1012.7
20260510005311 27 351 3.2 16.1 0.00 0.00 0.00 17 1012.7
20260510004813 27 42 3.2 8.0 0.00 0.00 0.00 17 1012.8
20260510004317 27 0 4.8 16.1 0.00 0.00 0.00 17 1012.7
20260510003814 27 342 4.8 16.1 0.00 0.00 0.00 17 1012.7
20260510003317 27 355 4.8 14.5 0.00 0.00 0.00 16 1012.7
20260510002813 27 350 4.8 14.5 0.00 0.00 0.00 17 1012.8
20260510002548 27 44 4.8 17.7 0.00 0.00 0.00 17 1012.8
20260510001811 27 41 4.8 17.7 0.00 0.00 0.00 16 1012.8
20260510001311 28 60 4.8 12.9 0.00 0.00 0.00 16 1012.8
20260510000811 28 319 4.8 12.9 0.00 0.00 0.00 17 1012.9
20260510000311 27 49 6.4 12.9 0.00 0.00 0.00 16 1013.1
20260509235812 27 342 6.4 17.7 0.00 0.00 0.00 16 1013.0
20260509235311 28 346 4.8 17.7 0.00 0.00 0.00 15 1013.1
20260509234812 28 329 4.8 12.9 0.00 0.00 0.00 17 1013.3
20260509234311 28 36 4.8 12.9 0.00 0.00 0.00 16 1013.3
20260509233810 28 11 4.8 12.9 0.00 0.00 0.00 16 1013.4
20260509233547 28 345 4.8 20.9 0.00 0.00 0.00 16 1013.4
20260509232811 27 25 4.8 20.9 0.00 0.00 0.00 16 1013.5
20260509232310 27 26 4.8 17.7 0.00 0.00 0.00 15 1013.5
20260509231811 27 346 4.8 17.7 0.00 0.00 0.00 15 1013.6
20260509231311 27 342 3.2 8.0 0.00 0.00 0.00 14 1013.8
20260509230811 27 42 4.8 8.0 0.00 0.00 0.00 13 1013.9
20260509230312 27 289 4.8 16.1 0.00 0.00 0.00 13 1013.8
20260509225810 28 50 4.8 16.1 0.00 0.00 0.00 13 1013.9
20260509225533 27 9 4.8 17.7 0.00 0.00 0.00 14 1013.9